Weather Roundup
Issued by NWS Chicago, IL

Home | Current Version | Previous Version | Graphics & Text | Print | Product List | Glossary On
Versions: 1 2 3 4 5 6 7 8 9 10 11 12 13 14 15 16 17 18 19 20 21 22 23 24 25 26 27 28 29 30 31 32 33 34 35 36 37 38 39 40 41 42 43 44 45 46 47 48 49 50
000
NZUS59 KLOT 301710
HRRLOT

CHICAGO AREA WEATHER ROUNDUP
NATIONAL WEATHER SERVICE CHICAGO/ROMEOVILLE IL
1100 AM CST FRI JAN 30 2015

NOTE: "FAIR" INDICATES FEW OR NO CLOUDS BELOW 12,000 FEET WITH NO
SIGNIFICANT WEATHER AND/OR OBSTRUCTIONS TO VISIBILITY.

* THESE STATIONS ARE NOT UNDER NWS QUALITY CONTROL. THEY ALSO MAY NOT
  REPORT WEATHER SUCH AS PRECIPITATION OR FOG.

ILZ005-006-012>014-019>023-301800-
NORTHEAST ILLINOIS

CITY           SKY/WX    TMP DP  RH WIND       PRES   REMARKS
OHARE          MOSUNNY   26   7  44 VRB3      30.52S
MIDWAY         MOSUNNY   28   9  44 CALM      30.53R
AURORA         SUNNY     26   8  46 NW5       30.54R WCI  20
LANSING*       MOSUNNY   28  13  53 N6        30.52F WCI  21
JOLIET*        SUNNY     26   9  48 CALM      30.54S
WAUKEGAN       SUNNY     25   7  46 VRB3      30.52R
DUPAGE AIRPORT SUNNY     26   9  48 NW6       30.53R WCI  19
WHEELING       SUNNY     25   8  48 E5        30.54R WCI  19
KANKAKEE*      SUNNY     28  13  53 NW3       30.54S
MORRIS*        SUNNY     27  15  61 CALM      30.54S
LEWIS AIRPORT* SUNNY     26   8  46 N3        30.54R
NORTHERLY IS     N/A     26  14  60 N13         N/A  WCI  15
$$

WIZ051-052-058>065-066-070>072-301800-
SOUTHEAST WISCONSIN

CITY           SKY/WX    TMP DP  RH WIND       PRES   REMARKS
MILWAUKEE      MOSUNNY   23   6  48 VRB3      30.53R
KENOSHA*       SUNNY     24   8  50 NW6       30.52S WCI  17
RACINE*        PTSUNNY   24   9  52 N5        30.54R WCI  18
BURLINGTON     SUNNY     21   6  52 CALM      30.52F
WAUKESHA       SUNNY     19   7  58 NW3       30.52R
WEST BEND      SUNNY     21   5  49 CALM      30.50F
$$

INZ001>003-010>013-019-020-301800-
NORTHWEST INDIANA

CITY           SKY/WX    TMP DP  RH WIND       PRES   REMARKS
GARY*          PTSUNNY   28  10  47 N14       30.54R WCI  17
MICHIGAN CITY* NOT AVBL
RENSSELAER*    NOT AVBL
VALPARAISO     CLOUDY    26  13  57 NW10      30.51R WCI  16
$$

LMZ740>746-301800-
SOUTHERN LAKE MICHIGAN

STATION/POSITION TIME  SKY/WX   TEMP WIND        PRES    VSBY
                                AIR  DIR/SP/G
                 (UTC)          (F)  (DEG/KT/KT) (MB)    (MI)
HARRISON CRIB    1600            23  340/ 13/ 16   N/A
BURNHAM HARBOR   1600            26   10/ 10/ 11   N/A
CALUMET HARBOR   1600            26  340/  9/ 13   N/A
BURNS HARBOR     NOT AVBL
MICHIGAN CITY    1600            24  350/ 16/ 19   N/A
$$

ABBREVIATIONS USED IN REMARKS
   TC - TEMPERATURE IN CELSIUS
  WCI - WIND CHILL INDEX
   HX - HEAT INDEX
  VSB - VISIBILITY
$$



USA.gov is the U.S. government's official web portal to all federal, state and local government web resources and services.